Theta_e
302 303 303 304 304 304 305 306 307 308 309 310 309 309 310 311 311 316 318 317 317 334 329 340 340 346 349 351 353 351 358 358 356 354 350 337 339 345 345 350 350 348 348 345 348
303 304 304 304 304 305 305 306 307 308 308 310 311 310 309 310 314 320 320 318 319 331 332 337 337 337 347 348 352 351 352 355 349 349 348 344 338 340 350 351 352 349 346 348 347
305 305 305 305 305 305 305 306 306 307 308 309 311 311 310 311 316 314 325 325 322 328 332 332 333 338 344 346 350 352 353 348 346 344 342 333 337 338 343 353 350 350 350 348 346
308 308 309 309 310 309 308 307 306 307 307 308 310 313 310 316 314 325 321 319 324 332 330 336 337 343 346 350 344 343 346 346 334 326 322 332 336 338 345 345 344 346 347 348 348
312 311 313 313 314 314 312 311 309 307 307 308 310 312 311 310 311 316 319 325 329 333 332 325 328 331 340 339 338 334 335 331 326 322 321 327 337 339 339 341 346 345 347 350 349
314 314 315 315 315 315 315 312 310 308 310 311 312 311 317 311 315 316 329 329 329 334 331 326 323 328 335 338 338 336 331 327 322 323 325 338 341 340 339 345 347 347 346 347 349
316 316 316 317 317 317 316 311 309 312 316 316 315 311 316 310 316 321 319 320 324 327 326 328 326 333 337 338 333 329 323 322 322 323 325 328 333 343 341 347 348 347 346 346 347
317 317 317 317 317 317 313 308 311 315 316 315 312 315 309 314 313 313 314 315 316 317 324 324 326 324 332 331 321 321 321 327 325 323 324 323 324 326 333 346 349 348 347 346 345
317 316 317 316 317 316 310 307 313 314 316 314 317 312 310 314 316 317 317 317 318 322 329 330 329 330 330 325 326 318 326 323 323 323 323 323 322 323 324 337 347 349 348 348 347
317 317 316 316 317 315 309 311 314 318 313 316 320 315 315 315 315 316 316 317 316 326 329 330 328 326 316 322 332 328 321 321 321 322 321 321 320 320 323 340 345 348 348 348 348
317 317 316 316 317 312 309 311 305 307 308 310 310 311 312 313 314 315 316 315 316 327 329 330 329 328 327 323 324 324 321 321 320 321 322 319 319 320 320 336 342 344 347 348 348
317 317 316 317 316 309 309 306 307 306 307 308 308 309 311 312 312 314 315 314 320 321 329 328 330 328 328 326 325 321 320 319 319 320 319 319 320 321 320 332 341 343 345 346 345
317 316 315 317 315 311 306 307 305 307 306 309 309 310 311 311 313 313 314 315 317 322 326 329 327 330 330 328 326 323 321 321 321 320 319 319 319 319 319 325 337 341 342 343 344
316 315 315 315 312 310 306 305 308 308 308 312 314 315 314 312 313 314 315 316 316 316 317 319 324 330 330 331 328 329 324 323 322 320 322 319 321 319 318 318 319 332 339 343 343
316 315 314 312 309 307 307 308 310 306 312 315 315 316 312 314 315 318 315 315 316 316 316 317 323 327 330 330 325 327 324 323 322 319 318 318 317 318 317 319 318 317 321 332 340
316 315 313 309 307 308 306 310 307 311 313 314 315 314 312 314 314 315 315 315 315 316 316 316 317 321 324 325 324 324 321 317 312 312 317 318 317 317 318 319 319 321 321 324 325
316 316 309 307 306 307 307 305 309 311 312 316 315 312 311 313 314 315 316 315 314 315 315 316 317 317 320 321 320 319 317 318 319 318 321 314 315 317 318 317 318 320 320 320 329
316 313 308 307 307 307 308 307 313 313 313 313 314 312 314 313 314 314 316 317 315 315 314 316 316 318 319 319 318 317 317 319 321 320 321 316 319 321 318 318 318 318 318 319 332
315 311 308 310 309 310 304 309 313 312 314 313 312 313 313 313 314 314 314 317 318 315 318 315 317 317 319 319 319 319 320 318 318 313 316 317 317 318 319 321 325 336 328 326 339
309 305 307 310 311 308 303 308 310 309 312 313 314 313 314 313 313 312 314 316 316 317 318 319 319 321 322 320 320 319 318 320 317 322 320 319 318 320 321 322 339 359 347 347 346
305 303 309 310 312 308 310 309 310 311 311 312 313 313 313 313 313 313 314 315 317 318 318 322 319 322 322 321 319 318 317 315 315 317 321 320 321 317 320 335 348 362 360 358 360
301 309 310 308 311 304 312 313 313 315 318 317 314 312 313 313 315 314 316 316 318 322 320 321 317 323 325 324 321 317 317 317 321 320 314 316 320 330 342 340 361 366 363 359 357
299 299 307 309 313 308 308 313 315 319 319 320 320 316 315 315 318 316 319 321 322 322 323 321 320 323 323 324 326 324 322 317 317 315 317 320 321 334 348 355 355 358 362 361 358
299 308 304 302 303 310 310 311 315 317 320 321 321 320 319 318 316 319 323 323 323 322 332 323 321 320 322 324 325 328 329 327 318 319 321 318 319 321 341 350 347 345 351 356 360
299 307 303 307 307 307 308 310 316 316 316 319 322 321 321 320 320 322 323 322 323 325 322 318 319 324 324 328 328 330 339 344 321 318 322 321 321 335 341 344 346 348 351 352 356
305 305 302 304 303 306 308 313 312 312 315 321 320 320 319 322 320 321 323 322 323 322 324 318 322 325 324 325 325 326 331 344 345 344 344 341 347 346 343 342 342 343 345 347 349
303 303 303 305 303 305 306 309 310 309 314 318 319 320 320 320 320 320 318 320 320 324 323 320 320 321 322 323 325 340 343 342 345 345 345 341 344 344 340 337 336 338 341 344 344
Wind_Speed
26 26 26 26 26 26 27 26 25 24 24 24 23 24 25 26 26 11 7 8 9 20 23 26 12 14 12 5 4 3 3 2 3 4 7 1 4 5 3 6 4 7 6 6 27
27 28 28 28 29 29 28 28 27 26 25 25 24 24 23 26 20 9 4 5 9 25 26 22 8 10 3 3 2 3 3 7 7 5 7 10 8 9 4 3 5 6 3 23 31
28 28 29 29 30 30 30 30 28 27 27 25 23 23 22 20 5 4 9 3 14 23 19 20 19 8 4 4 5 6 6 6 7 12 10 8 6 9 8 6 11 12 15 18 24
28 30 30 31 31 32 33 31 30 30 29 25 22 20 18 6 4 1 6 4 12 17 12 8 5 6 6 7 6 4 10 8 6 5 3 6 5 7 9 12 8 10 19 19 18
30 32 32 34 34 35 35 34 32 32 29 25 19 14 6 3 8 10 10 4 20 20 11 6 6 3 5 6 5 6 5 7 9 7 8 3 8 8 11 14 9 13 19 20 19
32 33 34 36 37 38 38 37 35 30 26 25 19 7 2 3 5 7 1 10 14 21 6 8 7 8 5 6 7 6 6 7 8 3 5 3 3 8 9 7 11 17 16 17 19
33 34 36 38 39 39 41 37 31 29 20 18 13 5 3 14 8 6 5 7 6 11 6 14 12 2 2 4 5 4 4 7 5 4 3 2 1 7 7 8 13 14 20 21 21
32 33 35 36 38 40 41 28 26 12 11 5 5 7 7 9 11 19 19 15 13 15 23 12 13 6 4 6 5 2 2 4 4 1 3 6 7 10 7 9 14 17 21 16 18
30 33 36 38 39 44 29 31 13 4 10 8 5 5 8 6 5 3 2 6 12 12 14 4 6 6 2 3 5 6 4 5 9 2 3 3 8 10 3 10 14 16 18 15 15
31 34 37 39 38 41 34 16 5 4 5 2 1 2 5 3 6 13 24 17 4 2 2 5 3 4 3 4 6 10 5 4 5 5 6 5 10 8 6 6 14 14 11 14 17
31 35 38 39 40 29 29 6 6 5 8 4 4 4 12 12 20 12 8 2 1 3 3 4 5 7 10 10 2 4 4 7 3 4 3 7 8 12 8 7 8 9 12 15 21
32 35 38 37 38 15 14 6 6 3 8 5 8 8 15 9 6 6 9 7 5 5 3 4 7 7 10 6 7 5 5 6 6 3 5 8 14 16 5 7 9 13 9 15 7
33 34 37 35 24 12 7 8 8 6 1 8 5 4 5 6 6 6 10 5 6 7 7 10 5 9 7 6 6 4 5 4 8 4 4 6 8 7 6 5 4 7 9 9 14
31 33 34 39 6 23 6 4 20 4 4 6 6 4 1 3 6 8 9 7 4 10 7 6 8 10 7 6 8 6 9 8 2 2 5 2 8 7 8 7 6 9 10 16 17
30 31 35 35 18 8 7 18 11 5 4 7 7 5 11 4 7 3 4 3 7 9 8 8 4 8 11 16 6 11 6 8 4 5 1 3 3 8 4 7 8 12 12 16 19
30 32 37 16 11 10 14 19 2 5 3 7 5 7 9 4 5 6 1 3 3 1 3 7 3 6 9 9 12 3 3 5 4 4 1 7 7 5 5 9 7 4 10 13 15
31 32 28 12 4 10 15 3 5 4 5 7 5 8 6 6 8 8 6 2 3 2 4 4 5 4 6 5 3 4 5 2 4 3 6 3 3 9 8 11 9 12 12 9 11
32 29 16 8 9 8 6 5 4 1 4 5 4 9 3 6 5 8 8 7 4 2 1 4 6 6 2 7 10 7 9 5 5 4 7 4 5 6 11 13 9 9 12 11 8
30 18 4 7 3 2 5 5 4 4 3 6 9 3 4 4 0 6 7 4 3 4 3 3 6 5 5 5 7 3 4 4 5 3 2 4 8 9 7 9 4 10 9 9 8
23 12 5 7 4 4 5 2 3 4 3 1 2 2 3 4 6 6 5 3 9 3 2 3 5 3 3 2 1 5 4 3 2 2 4 6 5 6 11 11 9 7 6 5 6
7 4 13 3 5 5 3 4 5 8 4 6 4 4 5 4 2 4 4 6 8 9 5 1 3 7 3 5 8 2 3 1 5 3 4 4 7 7 10 9 8 4 7 7 11
4 2 3 10 4 1 1 3 4 6 1 5 3 6 5 4 3 3 4 3 9 8 6 3 3 2 5 6 5 5 9 7 5 4 3 3 9 2 7 8 6 5 8 10 11
2 2 3 0 2 2 5 4 3 3 4 3 2 3 1 3 4 3 4 8 7 7 5 4 3 4 9 5 6 4 6 3 5 3 8 6 6 1 5 6 7 9 10 3 12
2 3 4 4 1 3 3 3 5 5 4 3 3 2 4 4 2 4 5 4 11 5 3 3 2 6 5 7 5 6 12 7 3 4 6 7 4 6 9 6 7 11 11 9 6
3 1 3 2 1 1 1 1 4 5 5 7 4 4 5 2 6 4 4 7 8 2 6 3 2 1 6 8 4 11 7 16 13 10 7 5 8 5 4 5 8 7 8 14 12
2 1 3 1 2 2 2 3 2 5 2 3 3 8 3 2 5 6 3 3 7 6 5 3 3 1 5 2 3 11 13 19 6 2 6 5 4 1 7 8 12 12 12 14 13
1 0 3 2 1 1 3 1 3 5 4 2 4 3 4 5 6 13 10 10 8 3 3 2 2 3 5 7 10 4 5 9 13 8 4 5 3 6 12 12 11 8 13 14 14
Wind_Direction
11 8 5 2 358 355 352 349 347 344 341 338 338 338 335 331 328 301 239 241 195 175 164 152 148 165 181 196 207 129 50 304 279 308 278 181 188 177 178 140 210 187 165 193 158
8 6 3 359 356 352 348 346 342 338 337 337 336 336 335 330 324 256 291 228 189 175 156 152 161 153 181 216 218 132 146 220 210 242 268 269 208 166 146 201 247 177 92 139 147
6 2 359 357 353 350 347 343 338 334 332 332 333 334 334 330 325 256 5 203 174 178 177 164 154 148 180 170 205 180 205 218 226 244 244 266 242 164 146 218 219 194 156 151 160
1 359 356 353 351 347 344 340 336 332 328 327 328 332 328 333 308 246 349 18 174 165 166 159 127 162 194 202 199 193 240 247 265 221 289 237 204 182 174 211 207 191 165 156 172
358 356 353 350 348 345 340 335 333 328 324 319 318 324 324 344 254 286 322 172 176 180 182 170 173 194 205 210 182 219 247 257 254 283 249 237 208 191 232 224 105 142 164 175 178
353 351 349 347 345 343 338 332 330 326 315 310 310 312 160 238 268 277 300 142 189 195 208 188 206 204 268 239 188 218 210 246 262 228 269 301 354 147 245 119 143 172 164 175 190
348 347 345 343 342 340 335 329 329 323 310 296 283 191 184 229 265 248 271 263 211 219 216 223 228 233 193 269 266 274 259 298 233 163 287 65 345 225 243 165 172 171 186 187 190
344 343 341 339 340 338 332 332 330 355 354 325 179 145 234 255 263 270 275 279 275 256 238 235 218 200 199 295 356 310 17 257 269 99 230 123 257 249 234 196 193 182 198 193 187
342 342 340 339 340 338 338 333 320 350 33 70 103 150 262 317 286 18 24 273 294 262 238 227 154 184 167 142 355 352 235 241 306 110 129 125 267 274 244 216 209 202 197 196 188
341 341 340 338 341 340 340 339 360 330 3 0 63 352 286 286 291 287 291 287 245 58 141 181 176 147 65 110 219 223 225 246 233 304 352 318 271 285 284 209 216 213 199 198 199
338 340 339 339 342 343 350 4 14 354 33 269 242 248 278 289 291 249 218 24 207 124 198 219 168 178 195 201 143 187 231 252 241 189 269 267 278 285 304 253 217 214 194 208 215
338 339 339 338 341 351 10 78 102 260 312 248 245 258 270 268 301 295 196 150 142 190 194 299 239 193 209 174 210 224 238 263 285 243 176 288 289 282 272 240 213 213 218 219 188
337 339 338 337 341 352 8 129 343 341 288 302 224 240 247 144 246 279 154 172 168 180 192 213 218 203 184 198 171 219 210 241 238 309 249 293 304 321 314 289 256 213 226 216 210
334 337 339 338 346 335 307 304 330 193 54 289 339 300 246 250 281 226 214 157 207 190 185 226 222 221 206 214 156 244 208 241 242 87 264 136 290 301 278 266 265 238 219 229 222
331 334 334 334 303 299 311 324 335 158 22 333 309 301 314 190 281 266 165 65 195 185 133 227 197 198 217 235 162 234 140 210 213 189 47 234 139 270 330 279 237 234 231 236 239
330 332 329 327 297 290 315 326 90 38 296 330 323 335 359 321 295 296 53 138 185 195 309 232 194 159 213 225 193 261 147 62 65 108 81 246 168 280 246 227 272 222 213 232 234
330 332 319 301 260 307 324 2 37 110 351 329 325 350 334 293 320 6 328 283 142 103 247 249 228 231 174 187 139 119 85 310 334 4 221 148 119 228 256 251 226 247 271 242 227
332 330 322 305 281 301 337 50 80 306 289 299 314 321 315 349 316 333 358 5 15 211 251 149 310 169 204 183 193 184 162 164 217 222 272 168 252 263 227 246 258 278 266 277 251
334 340 16 0 34 49 65 62 192 215 265 319 326 350 310 309 122 356 355 311 312 323 308 140 282 252 193 177 150 183 167 195 127 36 51 273 291 301 298 297 297 300 297 265 222
334 333 11 7 78 20 70 205 240 217 305 318 263 225 305 289 357 20 347 295 332 10 226 340 302 229 286 121 155 157 181 63 18 22 312 300 294 245 294 289 313 334 356 35 89
346 23 350 115 353 45 110 232 272 254 209 190 230 284 249 285 263 295 306 298 3 331 354 31 111 298 287 174 211 148 181 355 133 149 179 263 268 223 257 289 297 12 67 73 92
15 9 77 347 48 51 148 208 261 285 353 262 222 222 241 283 294 316 351 265 334 322 334 318 146 285 268 282 276 201 201 161 123 244 171 192 260 292 284 290 313 178 134 125 112
64 267 5 27 101 326 304 296 260 303 304 328 291 350 304 299 333 8 332 276 300 335 357 311 18 11 344 356 4 14 340 306 103 104 199 171 264 4 8 35 359 360 357 63 138
66 15 329 43 48 123 16 297 308 304 259 326 255 15 337 10 1 297 311 301 323 319 12 77 121 152 188 238 270 287 289 261 167 164 177 226 308 312 342 355 6 22 5 36 36
33 231 180 308 6 4 189 285 304 323 333 9 354 4 277 318 329 313 271 309 306 357 10 71 237 226 247 252 267 264 310 310 199 204 165 191 196 274 332 5 29 28 37 57 30
107 90 358 259 309 314 84 201 264 314 264 312 7 311 327 168 212 265 261 220 243 317 5 341 267 131 287 3 330 307 333 333 3 127 108 134 240 108 70 58 41 31 52 59 57
92 77 109 297 18 85 221 321 285 355 279 241 284 317 300 263 260 261 233 248 243 265 316 267 216 69 287 320 347 52 79 316 328 313 28 209 87 101 70 67 35 24 62 62 55